Notices

What's New in latest Release from April 7th, 2021:

- Updated Glossary, including Speed of Maximum Gust, and Total Hourly Precipitation

- Updated national and regional climate services offices contacts and prices information

- Addition of station inventory lists for 1981-2010, 1971-2000, and 1961-1990 Normals.

If you haven't already, please take our survey and provide feedback about our website: https://eccc.sondage-survey.ca/f/LanguageSelection.aspx?s=442ca660-fcf1-47c0-95a9-59707d6fd709

Hourly Data Report for January 03, 2021

EDMUNDSTON
NEW BRUNSWICK
Current Station Operator: ECCC - MSC

47°25'00.000" N
68°19'28.040" W
154.20 m
8101303
71590
ERM

Download Data

Hourly Data (January 2021)
Hourly Data Report for January 3, 2021
TIME
LST
Temp Definition
°C
Dew Point Definition
°C
Rel Hum Definition
%
Precip. Amount Definition
mm

Wind Dir Definition
10's deg

Wind Spd Definition
km/h
Visibility Definition
km
Stn Press Definition
kPa
Hmdx Definition


Wind Chill Definition


Weather Definition


00:00 -11.6 LegendMM LegendMM 0.0 32 4   99.92   -14 LegendNANA
01:00 -11.0 LegendMM LegendMM 0.0 28 3   99.97   -13 LegendNANA
02:00 -10.4 LegendMM LegendMM 0.0 27 4   100.03   -13 LegendNANA
03:00 -13.2 LegendMM LegendMM 0.0 30 3   100.11   -15 LegendNANA
04:00 -11.8 LegendMM LegendMM 0.0   0   100.23     LegendNANA
05:00 -11.0 LegendMM LegendMM 0.0 29 2   100.23   -12 LegendNANA
06:00 -10.6 LegendMM LegendMM 0.0 26 2   100.22   -12 LegendNANA
07:00 -10.4 LegendMM LegendMM 0.0 26 3   100.22   -12 LegendNANA
08:00 -10.0 LegendMM LegendMM 0.0   0   100.25     LegendNANA
09:00 -9.5 LegendMM LegendMM 0.0   0   100.31     LegendNANA
10:00 -8.3 LegendMM LegendMM 0.0 9 2   100.34   -9 LegendNANA
11:00 -6.6 LegendMM LegendMM 0.0 12 2   100.34   -8 LegendNANA
12:00 -5.6 LegendMM LegendMM 0.0 31 1   100.25   -6 LegendNANA
13:00 -4.9 LegendMM LegendMM 0.0 16 4   100.26   -7 LegendNANA
14:00 -5.1 LegendMM LegendMM 0.0 17 7   100.28   -8 LegendNANA
15:00 -4.8 LegendMM LegendMM 0.0 12 7   100.18   -8 LegendNANA
16:00 -4.8 LegendMM LegendMM 0.0 14 5   100.09   -7 LegendNANA
17:00 -5.1 LegendMM LegendMM 0.0 14 6   100.04   -8 LegendNANA
18:00 -5.3 LegendMM LegendMM 0.0 15 5   100.04   -8 LegendNANA
19:00 -5.5 LegendMM LegendMM 0.0 13 6   100.04   -8 LegendNANA
20:00 -5.5 LegendMM LegendMM 0.0 13 5   100.05   -8 LegendNANA
21:00 -5.6 LegendMM LegendMM 0.0 12 6   100.05   -8 LegendNANA
22:00 -5.7 LegendMM LegendMM 0.0 13 7   100.04   -9 LegendNANA
23:00 -5.9 LegendMM LegendMM 0.0 13 8   100.04   -10 LegendNANA

Notes on Data Quality.

Legend

  • E = Estimated
  • M = Missing
  • NA = Not Available*
  • [empty] = Indicates an unobserved value
Date modified: